Time,TemperatureF,DewpointF,PressureIn,WindDirection,WindDirectionDegrees,WindSpeedMPH,WindSpeedGustMPH,Humidity,HourlyPrecipIn,Conditions,Clouds,dailyrainin,SoftwareType,DateUTC
2013-03-04 00:01:00,35.0,35.0,30.25,North,0,0.0,0.0,100,0.00,,,0.00,,2013-03-04 08:01:00,
2013-03-04 00:11:00,36.0,36.0,30.25,North,0,0.0,0.0,100,0.00,,,0.00,,2013-03-04 08:11:00,
2013-03-04 00:21:00,36.0,36.0,30.25,North,0,0.0,0.0,100,0.00,,,0.00,,2013-03-04 08:21:00,
2013-03-04 00:31:00,36.0,36.0,30.24,North,0,0.0,0.0,100,0.00,,,0.00,,2013-03-04 08:31:00,
2013-03-04 00:41:00,36.0,36.0,30.24,North,0,0.0,0.0,100,0.00,,,0.00,,2013-03-04 08:41:00,
2013-03-04 00:52:00,35.0,35.0,30.24,North,0,0.0,0.0,100,0.00,,,0.00,,2013-03-04 08:52:00,
2013-03-04 01:01:00,35.0,35.0,30.24,North,0,0.0,0.0,100,0.00,,,0.00,,2013-03-04 09:01:00,
2013-03-04 01:11:00,35.0,35.0,30.24,North,0,0.0,0.0,100,0.00,,,0.00,,2013-03-04 09:11:00,
2013-03-04 01:21:00,34.0,34.0,30.24,North,0,0.0,0.0,100,0.00,,,0.00,,2013-03-04 09:21:00,
2013-03-04 01:31:00,34.0,34.0,30.23,North,0,0.0,0.0,100,0.00,,,0.00,,2013-03-04 09:31:00,
2013-03-04 01:41:00,34.0,34.0,30.23,North,0,0.0,0.0,100,0.00,,,0.00,,2013-03-04 09:41:00,
2013-03-04 01:52:00,34.0,34.0,30.23,North,0,0.0,0.0,100,0.00,,,0.00,,2013-03-04 09:52:00,
2013-03-04 02:01:00,34.0,34.0,30.23,North,0,0.0,2.0,100,0.00,,,0.00,,2013-03-04 10:01:00,
2013-03-04 02:11:00,34.0,34.0,30.23,North,0,0.0,2.0,100,0.00,,,0.00,,2013-03-04 10:11:00,
2013-03-04 02:21:00,34.0,34.0,30.22,SE,126,1.0,3.0,100,0.00,,,0.00,,2013-03-04 10:21:00,
2013-03-04 02:31:00,34.0,34.0,30.21,North,0,0.0,3.0,100,0.00,,,0.00,,2013-03-04 10:31:00,
2013-03-04 02:41:00,34.0,34.0,30.21,North,0,0.0,0.0,100,0.00,,,0.00,,2013-03-04 10:41:00,
2013-03-04 02:52:00,34.0,34.0,30.21,North,0,0.0,0.0,100,0.00,,,0.00,,2013-03-04 10:52:00,
2013-03-04 03:01:00,34.0,34.0,30.21,North,0,0.0,2.0,100,0.00,,,0.00,,2013-03-04 11:01:00,
2013-03-04 03:11:00,34.0,34.0,30.21,North,0,0.0,2.0,100,0.00,,,0.00,,2013-03-04 11:11:00,
2013-03-04 03:21:00,33.0,33.0,30.20,North,0,0.0,0.0,100,0.00,,,0.00,,2013-03-04 11:21:00,
2013-03-04 03:31:00,33.0,33.0,30.20,North,0,0.0,0.0,100,0.00,,,0.00,,2013-03-04 11:31:00,
2013-03-04 03:41:00,33.0,33.0,30.20,North,0,0.0,0.0,100,0.00,,,0.00,,2013-03-04 11:41:00,
2013-03-04 03:52:00,32.0,32.0,30.19,North,0,0.0,0.0,100,0.00,,,0.00,,2013-03-04 11:52:00,
2013-03-04 04:01:00,32.0,32.0,30.19,North,0,0.0,0.0,100,0.00,,,0.00,,2013-03-04 12:01:00,
2013-03-04 04:11:00,31.0,31.0,30.19,North,0,0.0,0.0,100,0.00,,,0.00,,2013-03-04 12:11:00,
2013-03-04 04:21:00,31.0,31.0,30.19,North,0,0.0,0.0,100,0.00,,,0.00,,2013-03-04 12:21:00,
2013-03-04 04:32:00,31.0,31.0,30.19,North,0,0.0,0.0,100,0.00,,,0.00,,2013-03-04 12:32:00,
2013-03-04 04:42:00,31.0,31.0,30.19,North,0,0.0,0.0,100,0.00,,,0.00,,2013-03-04 12:42:00,
2013-03-04 04:52:00,31.0,31.0,30.19,North,0,0.0,0.0,100,0.00,,,0.00,,2013-03-04 12:52:00,
2013-03-04 05:01:00,31.0,31.0,30.18,North,0,0.0,0.0,100,0.00,,,0.00,,2013-03-04 13:01:00,
2013-03-04 05:11:00,31.0,31.0,30.18,North,0,0.0,0.0,100,0.00,,,0.00,,2013-03-04 13:11:00,
2013-03-04 05:21:00,31.0,31.0,30.18,North,0,0.0,0.0,100,0.00,,,0.00,,2013-03-04 13:21:00,
2013-03-04 05:31:00,31.0,31.0,30.16,North,0,0.0,0.0,100,0.00,,,0.00,,2013-03-04 13:31:00,
2013-03-04 05:41:00,31.0,31.0,30.16,North,0,0.0,0.0,100,0.00,,,0.00,,2013-03-04 13:41:00,
2013-03-04 05:52:00,32.0,32.0,30.16,North,0,0.0,0.0,100,0.00,,,0.00,,2013-03-04 13:52:00,
2013-03-04 06:01:00,33.0,33.0,30.15,North,0,0.0,0.0,100,0.00,,,0.00,,2013-03-04 14:01:00,
2013-03-04 06:11:00,33.0,33.0,30.15,North,0,0.0,0.0,100,0.00,,,0.00,,2013-03-04 14:11:00,
2013-03-04 06:21:00,33.0,33.0,30.14,NE,50,1.0,7.0,100,0.00,,,0.00,,2013-03-04 14:21:00,
2013-03-04 06:31:00,34.0,34.0,30.14,South,175,3.0,7.0,100,0.00,,,0.00,,2013-03-04 14:31:00,
2013-03-04 06:41:00,34.0,34.0,30.14,South,175,3.0,7.0,100,0.00,,,0.00,,2013-03-04 14:41:00,
2013-03-04 06:52:00,35.0,35.0,30.14,North,0,0.0,8.0,100,0.00,,,0.00,,2013-03-04 14:52:00,
2013-03-04 07:01:00,35.0,35.0,30.14,North,0,0.0,6.0,100,0.00,,,0.00,,2013-03-04 15:01:00,
2013-03-04 07:11:00,35.0,35.0,30.14,North,0,0.0,6.0,100,0.00,,,0.00,,2013-03-04 15:11:00,
2013-03-04 07:21:00,35.0,35.0,30.14,North,0,0.0,7.0,100,0.00,,,0.00,,2013-03-04 15:21:00,
2013-03-04 07:31:00,36.0,36.0,30.13,SSE,154,7.0,10.0,100,0.00,,,0.00,,2013-03-04 15:31:00,
2013-03-04 07:41:00,36.0,36.0,30.13,SSE,154,7.0,10.0,100,0.00,,,0.00,,2013-03-04 15:41:00,
2013-03-04 07:51:00,37.0,37.0,30.13,ESE,110,9.0,13.0,100,0.00,,,0.00,,2013-03-04 15:51:00,
2013-03-04 08:02:00,37.0,37.0,30.13,ESE,103,13.0,17.0,100,0.00,,,0.00,,2013-03-04 16:02:00,
2013-03-04 08:11:00,37.0,37.0,30.13,ESE,103,13.0,17.0,100,0.00,,,0.00,,2013-03-04 16:11:00,
2013-03-04 08:21:00,38.0,38.0,30.13,East,98,10.0,17.0,100,0.00,,,0.00,,2013-03-04 16:21:00,
2013-03-04 08:31:00,39.0,39.0,30.12,ESE,123,13.0,15.0,100,0.00,,,0.00,,2013-03-04 16:31:00,
2013-03-04 08:41:00,39.0,39.0,30.12,ESE,123,13.0,15.0,100,0.00,,,0.00,,2013-03-04 16:41:00,
2013-03-04 08:52:00,41.0,39.0,30.12,SE,133,14.0,18.0,93,0.00,,,0.00,,2013-03-04 16:52:00,
2013-03-04 09:01:00,42.0,38.0,30.12,ENE,78,13.0,16.0,87,0.00,,,0.00,,2013-03-04 17:01:00,
2013-03-04 09:11:00,42.0,38.0,30.12,ENE,78,13.0,16.0,87,0.00,,,0.00,,2013-03-04 17:11:00,
2013-03-04 09:21:00,43.0,38.0,30.11,ESE,112,9.0,18.0,83,0.00,,,0.00,,2013-03-04 17:21:00,
2013-03-04 09:31:00,44.0,38.0,30.12,ESE,113,10.0,12.0,79,0.00,,,0.00,,2013-03-04 17:31:00,
2013-03-04 09:42:00,44.0,38.0,30.12,ESE,113,10.0,12.0,79,0.00,,,0.00,,2013-03-04 17:42:00,
2013-03-04 09:52:00,44.0,37.0,30.11,East,79,5.0,14.0,77,0.00,,,0.00,,2013-03-04 17:52:00,
2013-03-04 10:01:00,46.0,38.0,30.10,ESE,119,8.0,11.0,73,0.00,,,0.00,,2013-03-04 18:01:00,
2013-03-04 10:11:00,46.0,38.0,30.10,ESE,119,8.0,11.0,73,0.00,,,0.00,,2013-03-04 18:11:00,
2013-03-04 10:21:00,46.0,37.0,30.11,SE,126,8.0,11.0,71,0.00,,,0.00,,2013-03-04 18:21:00,
2013-03-04 10:31:00,47.0,38.0,30.11,East,91,6.0,12.0,70,0.00,,,0.00,,2013-03-04 18:31:00,
2013-03-04 10:41:00,47.0,38.0,30.11,East,91,6.0,12.0,70,0.00,,,0.00,,2013-03-04 18:41:00,
2013-03-04 10:51:00,47.0,37.0,30.10,SSE,147,5.0,7.0,69,0.00,,,0.00,,2013-03-04 18:51:00,
2013-03-04 11:01:00,49.0,38.0,30.11,ENE,71,4.0,10.0,66,0.00,,,0.00,,2013-03-04 19:01:00,
2013-03-04 11:11:00,49.0,38.0,30.11,ENE,71,4.0,10.0,66,0.00,,,0.00,,2013-03-04 19:11:00,
2013-03-04 11:21:00,51.0,39.0,30.10,SSE,162,3.0,8.0,63,0.00,,,0.00,,2013-03-04 19:21:00,
2013-03-04 11:31:00,51.0,38.0,30.09,East,95,4.0,8.0,61,0.00,,,0.00,,2013-03-04 19:31:00,
2013-03-04 11:41:00,51.0,38.0,30.09,East,95,4.0,8.0,61,0.00,,,0.00,,2013-03-04 19:41:00,
2013-03-04 11:52:00,52.0,39.0,30.09,ESE,116,7.0,10.0,61,0.00,,,0.00,,2013-03-04 19:52:00,
2013-03-04 12:01:00,53.0,40.0,30.08,ESE,116,5.0,10.0,61,0.00,,,0.00,,2013-03-04 20:01:00,
2013-03-04 12:11:00,54.0,40.0,30.07,SSE,155,7.0,11.0,59,0.00,,,0.00,,2013-03-04 20:11:00,
2013-03-04 12:21:00,54.0,40.0,30.07,SSE,155,7.0,11.0,59,0.00,,,0.00,,2013-03-04 20:21:00,
2013-03-04 12:31:00,54.0,40.0,30.07,SSW,207,7.0,12.0,58,0.00,,,0.00,,2013-03-04 20:31:00,
2013-03-04 12:41:00,54.0,40.0,30.07,SSW,207,7.0,12.0,58,0.00,,,0.00,,2013-03-04 20:41:00,
2013-03-04 12:52:00,54.0,40.0,30.07,SE,142,7.0,8.0,58,0.00,,,0.00,,2013-03-04 20:52:00,
2013-03-04 13:01:00,53.0,41.0,30.06,SSW,211,7.0,9.0,64,0.00,,,0.00,,2013-03-04 21:01:00,
2013-03-04 13:11:00,53.0,41.0,30.06,SSW,211,7.0,9.0,64,0.00,,,0.00,,2013-03-04 21:11:00,
2013-03-04 13:21:00,52.0,39.0,30.06,WSW,256,8.0,11.0,61,0.00,,,0.00,,2013-03-04 21:21:00,
2013-03-04 13:31:00,52.0,41.0,30.06,WSW,252,7.0,9.0,65,0.00,,,0.00,,2013-03-04 21:31:00,
2013-03-04 13:41:00,52.0,41.0,30.06,WSW,252,7.0,9.0,65,0.00,,,0.00,,2013-03-04 21:41:00,
2013-03-04 13:52:00,52.0,41.0,30.05,SW,236,10.0,11.0,65,0.00,,,0.00,,2013-03-04 21:52:00,
2013-03-04 14:01:00,52.0,44.0,30.05,SSW,205,13.0,16.0,73,0.00,,,0.00,,2013-03-04 22:01:00,
2013-03-04 14:11:00,52.0,44.0,30.05,SSW,205,13.0,16.0,73,0.00,,,0.00,,2013-03-04 22:11:00,
2013-03-04 14:21:00,51.0,44.0,30.05,West,260,14.0,18.0,77,0.00,,,0.00,,2013-03-04 22:21:00,
2013-03-04 14:31:00,51.0,44.0,30.04,SW,215,9.0,18.0,78,0.00,,,0.00,,2013-03-04 22:31:00,
2013-03-04 14:42:00,51.0,44.0,30.04,SW,215,9.0,18.0,78,0.00,,,0.00,,2013-03-04 22:42:00,
2013-03-04 14:52:00,52.0,46.0,30.04,SSW,194,10.0,15.0,79,0.00,,,0.00,,2013-03-04 22:52:00,
2013-03-04 15:01:00,52.0,45.0,30.03,West,267,9.0,16.0,78,0.00,,,0.00,,2013-03-04 23:01:00,
2013-03-04 15:11:00,52.0,45.0,30.03,West,267,9.0,16.0,78,0.00,,,0.00,,2013-03-04 23:11:00,
2013-03-04 15:21:00,51.0,44.0,30.03,SW,225,9.0,16.0,78,0.00,,,0.00,,2013-03-04 23:21:00,
2013-03-04 15:31:00,51.0,45.0,30.02,SSW,211,13.0,13.0,79,0.00,,,0.00,,2013-03-04 23:31:00,
2013-03-04 15:41:00,51.0,45.0,30.02,SSW,211,13.0,13.0,79,0.00,,,0.00,,2013-03-04 23:41:00,
2013-03-04 15:52:00,51.0,45.0,30.01,West,268,10.0,17.0,80,0.00,,,0.00,,2013-03-04 23:52:00,
2013-03-04 16:01:00,50.0,44.0,30.02,WSW,239,13.0,17.0,80,0.00,,,0.00,,2013-03-05 00:01:00,
2013-03-04 16:11:00,50.0,44.0,30.02,WSW,239,13.0,17.0,80,0.00,,,0.00,,2013-03-05 00:11:00,
2013-03-04 16:21:00,50.0,44.0,30.02,South,189,14.0,18.0,80,0.00,,,0.00,,2013-03-05 00:21:00,
2013-03-04 16:32:00,50.0,44.0,30.02,SSW,205,14.0,21.0,81,0.00,,,0.00,,2013-03-05 00:32:00,
2013-03-04 16:41:00,50.0,44.0,30.02,SSW,205,14.0,21.0,81,0.00,,,0.00,,2013-03-05 00:41:00,
2013-03-04 16:51:00,49.0,44.0,30.02,WSW,249,13.0,23.0,82,0.00,,,0.00,,2013-03-05 00:51:00,
2013-03-04 17:01:00,49.0,44.0,30.01,WSW,253,12.0,18.0,83,0.00,,,0.00,,2013-03-05 01:01:00,
2013-03-04 17:11:00,49.0,44.0,30.01,WSW,253,12.0,18.0,83,0.00,,,0.00,,2013-03-05 01:11:00,
2013-03-04 17:21:00,48.0,43.0,30.01,SW,221,15.0,22.0,83,0.00,,,0.00,,2013-03-05 01:21:00,
2013-03-04 17:32:00,48.0,43.0,30.01,SW,215,14.0,22.0,84,0.00,,,0.00,,2013-03-05 01:32:00,
2013-03-04 17:41:00,48.0,43.0,30.01,SW,215,14.0,22.0,84,0.00,,,0.00,,2013-03-05 01:41:00,
2013-03-04 17:52:00,47.0,42.0,30.01,South,189,13.0,21.0,84,0.00,,,0.00,,2013-03-05 01:52:00,
2013-03-04 18:01:00,46.0,42.0,30.02,SW,229,12.0,21.0,85,0.00,,,0.00,,2013-03-05 02:01:00,
2013-03-04 18:11:00,46.0,42.0,30.02,SW,229,12.0,21.0,85,0.00,,,0.00,,2013-03-05 02:11:00,
2013-03-04 18:21:00,46.0,42.0,30.02,SSW,201,13.0,18.0,85,0.00,,,0.00,,2013-03-05 02:21:00,
2013-03-04 18:31:00,46.0,42.0,30.01,South,189,13.0,18.0,85,0.00,,,0.00,,2013-03-05 02:31:00,
2013-03-04 18:41:00,46.0,42.0,30.01,South,189,13.0,18.0,85,0.00,,,0.00,,2013-03-05 02:41:00,
2013-03-04 18:52:00,46.0,42.0,30.00,SSW,201,8.0,17.0,85,0.00,,,0.00,,2013-03-05 02:52:00,
2013-03-04 19:01:00,45.0,41.0,30.00,South,183,8.0,14.0,85,0.00,,,0.00,,2013-03-05 03:01:00,
2013-03-04 19:11:00,45.0,41.0,30.00,SW,218,13.0,18.0,85,0.00,,,0.00,,2013-03-05 03:11:00,
2013-03-04 19:21:00,45.0,41.0,30.00,SW,218,13.0,18.0,85,0.00,,,0.00,,2013-03-05 03:21:00,
2013-03-04 19:31:00,45.0,41.0,30.00,SSW,197,11.0,18.0,85,0.00,,,0.00,,2013-03-05 03:31:00,
2013-03-04 19:41:00,45.0,41.0,30.00,SSW,197,11.0,18.0,85,0.00,,,0.00,,2013-03-05 03:41:00,
2013-03-04 19:52:00,45.0,40.0,30.00,SW,225,10.0,18.0,84,0.00,,,0.00,,2013-03-05 03:52:00,
2013-03-04 20:01:00,44.0,39.0,30.00,SW,221,9.0,12.0,84,0.00,,,0.00,,2013-03-05 04:01:00,
2013-03-04 20:11:00,44.0,39.0,30.00,SW,221,9.0,12.0,84,0.00,,,0.00,,2013-03-05 04:11:00,
2013-03-04 20:21:00,44.0,39.0,29.99,SSW,212,9.0,13.0,84,0.00,,,0.00,,2013-03-05 04:21:00,
2013-03-04 20:31:00,44.0,39.0,29.99,SW,215,9.0,14.0,83,0.00,,,0.00,,2013-03-05 04:31:00,
2013-03-04 20:41:00,44.0,39.0,29.99,SW,215,9.0,14.0,83,0.00,,,0.00,,2013-03-05 04:41:00,
2013-03-04 20:52:00,44.0,39.0,29.99,SW,215,10.0,13.0,84,0.00,,,0.00,,2013-03-05 04:52:00,
2013-03-04 21:01:00,44.0,39.0,29.98,SSW,210,6.0,13.0,84,0.00,,,0.00,,2013-03-05 05:01:00,
2013-03-04 21:11:00,44.0,39.0,29.98,SSW,210,6.0,13.0,84,0.00,,,0.00,,2013-03-05 05:11:00,
2013-03-04 21:22:00,43.0,39.0,29.98,SSE,166,3.0,6.0,85,0.00,,,0.00,,2013-03-05 05:22:00,
2013-03-04 21:31:00,42.0,38.0,29.97,North,0,0.0,0.0,86,0.00,,,0.00,,2013-03-05 05:31:00,
2013-03-04 21:41:00,42.0,38.0,29.97,North,0,0.0,0.0,86,0.00,,,0.00,,2013-03-05 05:41:00,
2013-03-04 21:52:00,42.0,38.0,29.96,North,0,0.0,5.0,87,0.00,,,0.00,,2013-03-05 05:52:00,
2013-03-04 22:01:00,41.0,38.0,29.96,North,0,0.0,0.0,88,0.00,,,0.00,,2013-03-05 06:01:00,
2013-03-04 22:11:00,41.0,38.0,29.96,North,0,0.0,0.0,88,0.00,,,0.00,,2013-03-05 06:11:00,
2013-03-04 22:21:00,41.0,38.0,29.96,North,0,0.0,10.0,90,0.00,,,0.00,,2013-03-05 06:21:00,
2013-03-04 22:31:00,41.0,39.0,29.95,North,0,0.0,0.0,91,0.00,,,0.00,,2013-03-05 06:31:00,
2013-03-04 22:41:00,41.0,39.0,29.95,North,0,0.0,0.0,91,0.00,,,0.00,,2013-03-05 06:41:00,
2013-03-04 22:52:00,41.0,39.0,29.95,ESE,119,4.0,7.0,92,0.00,,,0.00,,2013-03-05 06:52:00,
2013-03-04 23:01:00,41.0,39.0,29.94,SSE,149,7.0,9.0,93,0.00,,,0.00,,2013-03-05 07:01:00,
2013-03-04 23:11:00,41.0,39.0,29.94,SSE,149,7.0,9.0,93,0.00,,,0.00,,2013-03-05 07:11:00,
2013-03-04 23:21:00,41.0,39.0,29.93,ESE,112,9.0,11.0,92,0.00,,,0.00,,2013-03-05 07:21:00,
2013-03-04 23:31:00,41.0,39.0,29.93,SE,127,7.0,11.0,91,0.00,,,0.00,,2013-03-05 07:31:00,
2013-03-04 23:41:00,41.0,39.0,29.93,SE,127,7.0,11.0,91,0.00,,,0.00,,2013-03-05 07:41:00,
2013-03-04 23:51:00,42.0,39.0,29.93,SE,137,7.0,10.0,90,0.00,,,0.00,,2013-03-05 07:51:00,